Wind_Speed
30 28 29 29 29 30 30 32 32 34 38 39 38 37 35 35 36 37 37 34 32 32 31 29 29 28 25 24 23 26 29 30 28 35 34 33 32 25 29 26 26 27 26
32 31 33 31 28 31 31 33 36 38 40 42 44 40 38 37 37 37 37 37 37 36 37 35 33 31 28 24 24 24 31 32 35 32 37 37 32 31 18 25 27 29 27
34 34 32 31 32 31 32 33 36 39 41 42 43 42 41 39 37 39 39 39 39 37 39 39 36 37 32 30 30 32 29 30 34 35 33 40 39 34 35 20 30 32 29
35 33 32 32 33 35 36 37 39 41 39 41 41 37 36 37 37 38 39 41 42 43 42 40 40 40 41 39 34 29 32 31 33 41 41 40 41 39 39 36 34 32 32
35 33 32 33 35 37 38 40 42 43 42 37 33 34 34 34 35 39 41 44 44 46 48 47 44 43 44 43 42 39 36 36 34 40 40 36 45 42 42 40 36 35 33
35 34 34 35 36 37 40 42 44 45 44 41 38 38 40 37 38 39 40 41 41 45 52 54 51 46 46 47 46 46 43 41 20 28 31 41 48 47 45 46 40 40 37
36 35 35 36 37 39 41 42 42 43 44 44 42 42 41 42 41 40 39 43 44 43 45 51 55 48 44 46 48 48 50 42 42 36 32 32 40 41 44 38 41 41 40
36 36 36 37 38 38 37 37 36 37 39 40 40 41 43 41 40 41 41 41 43 41 42 46 49 43 41 41 47 49 50 52 48 38 33 28 31 36 39 43 41 44 42
35 35 36 37 37 36 37 37 37 39 40 41 40 38 38 37 41 42 42 42 41 41 40 42 41 42 43 44 48 50 51 50 47 43 40 39 37 36 37 38 41 46 46
35 35 36 36 36 37 38 37 39 38 37 39 41 39 36 36 39 43 42 41 43 41 42 41 43 45 44 40 44 46 46 45 47 45 44 43 43 42 40 38 40 35 45
34 35 35 36 37 38 37 37 36 36 36 34 35 37 38 39 40 40 43 41 43 46 44 40 43 46 49 48 46 46 45 45 45 43 43 44 46 45 45 44 41 39 39
35 35 37 38 36 37 36 36 36 36 36 35 34 35 38 40 41 42 45 45 45 47 48 45 41 42 44 49 48 48 47 47 48 47 44 43 44 46 47 49 46 43 43
35 36 37 37 38 38 36 35 36 35 34 34 34 38 39 40 40 41 44 45 44 46 46 48 49 45 45 47 48 48 49 51 51 50 47 45 43 43 47 51 48 48 45
35 36 37 37 37 37 37 35 34 35 36 37 37 38 38 40 40 40 39 39 41 43 45 45 46 46 46 47 48 46 50 48 49 50 51 47 45 45 46 49 50 49 50
35 36 36 36 36 36 37 38 37 37 37 36 35 37 38 39 39 37 37 39 40 42 45 46 47 47 45 46 45 47 49 52 51 49 50 47 44 45 46 46 48 49 51
36 36 37 37 37 37 37 39 39 38 36 37 37 38 38 37 36 35 35 34 34 35 36 38 41 43 44 46 45 45 47 51 51 49 48 46 44 45 45 46 44 46 49
37 38 38 38 39 39 39 39 41 42 43 40 39 40 38 35 35 35 34 33 32 31 33 33 35 35 35 37 38 38 42 50 51 50 48 46 45 45 46 45 46 45 44
38 38 39 40 40 41 41 42 41 40 39 40 42 40 37 35 35 35 34 32 31 30 29 29 29 29 31 37 40 42 41 45 50 48 47 46 44 45 45 45 44 46 45
38 40 41 43 44 44 45 44 43 41 40 38 37 36 36 35 34 33 32 31 31 29 29 28 28 27 27 32 32 32 39 37 40 44 45 44 46 46 47 45 45 43 43
42 43 45 46 47 46 44 42 40 40 40 38 36 35 33 34 33 32 29 30 29 29 27 22 26 27 29 29 28 35 27 30 39 40 43 46 47 50 51 49 48 46 45
46 46 46 45 44 43 41 40 40 39 37 35 34 32 32 28 29 29 28 29 29 30 29 23 22 25 26 27 27 31 34 29 37 38 41 43 47 48 50 51 52 52 52
44 45 45 44 42 39 37 36 34 32 31 30 29 28 27 26 25 25 25 27 26 29 33 33 30 28 24 26 25 25 24 29 30 36 40 40 42 44 44 46 48 50 50
42 42 40 37 35 33 33 32 30 29 28 27 25 25 23 23 22 22 23 26 23 18 19 30 32 32 29 24 27 23 26 32 31 29 30 39 42 44 44 42 46 47 47
38 37 35 33 32 32 31 31 29 29 28 26 24 22 22 22 21 21 21 22 23 25 20 24 27 28 28 27 27 29 27 25 31 31 32 37 40 43 42 42 43 40 47
38 37 36 37 38 37 36 35 31 29 27 26 25 23 21 21 21 19 20 21 21 21 22 23 26 26 27 27 25 30 30 30 26 21 26 26 35 38 40 40 41 44 51
39 39 38 39 40 39 38 33 28 27 25 24 24 24 22 21 21 21 19 20 20 19 19 22 25 24 24 24 25 24 31 33 26 32 32 31 32 35 39 42 43 45 46
Wind_Direction
295 295 296 293 288 285 289 295 300 300 299 297 294 291 288 285 282 277 275 275 274 278 276 278 284 286 280 281 257 249 242 244 245 236 233 234 239 236 247 234 240 241 244
294 292 296 291 285 288 291 293 295 298 297 294 293 290 285 283 281 280 279 278 277 274 276 275 274 277 273 278 273 263 250 249 243 240 236 239 239 248 251 242 243 241 241
296 293 290 287 288 286 288 291 295 295 294 293 290 289 288 284 279 279 280 279 278 273 272 272 271 272 271 269 276 267 267 257 237 240 241 240 241 245 243 245 238 243 241
297 290 286 289 290 290 291 295 296 297 293 294 288 288 287 287 288 284 282 282 281 281 278 274 270 265 265 266 265 263 265 254 246 239 242 240 235 232 230 236 236 243 243
294 290 289 289 290 291 293 294 293 294 294 291 286 283 285 290 292 289 287 284 282 282 281 278 272 267 262 260 261 260 258 255 253 253 241 236 237 239 235 231 233 236 239
291 290 290 291 290 291 291 293 291 290 290 287 286 287 287 285 285 287 285 280 278 278 279 280 274 266 260 255 255 255 258 249 259 233 247 242 242 238 242 242 232 234 241
289 290 290 290 290 291 291 289 283 280 279 281 280 282 284 280 280 282 281 281 283 283 280 276 273 267 259 257 252 252 253 255 252 251 252 246 241 238 237 234 235 236 241
290 289 289 289 291 293 296 296 294 286 278 278 280 280 283 279 279 282 281 278 281 284 282 275 271 263 253 253 256 253 255 264 272 275 268 257 258 247 238 237 236 241 238
287 288 289 292 293 295 297 294 292 290 288 281 279 280 275 274 278 279 280 281 280 281 281 274 267 255 252 247 252 253 254 257 259 263 261 261 261 256 258 250 243 240 236
291 294 295 295 294 298 295 290 290 291 290 286 275 279 275 276 277 279 280 280 280 279 277 271 261 255 253 252 255 255 254 255 256 256 254 254 255 257 254 256 255 246 233
297 297 295 297 295 292 293 292 291 293 294 290 280 278 279 279 279 281 280 279 277 275 272 270 260 255 256 253 250 252 255 257 258 258 256 252 251 249 253 252 253 249 248
297 297 297 298 297 297 294 292 291 290 288 286 284 283 284 282 282 282 283 280 275 269 269 266 261 261 257 257 257 252 251 254 256 256 256 254 252 250 247 250 247 249 246
300 300 300 299 297 297 296 296 293 292 291 288 286 289 287 288 286 288 286 278 270 264 262 265 267 264 262 262 255 256 253 250 252 255 254 254 254 253 251 246 247 248 243
302 300 299 300 301 299 298 297 297 296 294 292 289 291 290 290 289 290 289 283 278 270 267 268 268 267 264 262 261 258 255 253 250 248 252 252 252 251 253 252 245 244 245
301 301 301 301 299 299 299 299 299 298 296 294 292 291 291 290 290 290 286 282 276 272 271 270 270 268 264 262 261 258 253 252 251 249 247 249 248 248 249 252 250 245 244
301 301 301 300 300 300 299 298 297 297 297 299 298 295 293 292 291 289 289 286 281 276 272 269 268 265 263 259 258 257 254 247 248 249 247 244 244 243 245 248 251 247 244
302 303 304 304 303 302 301 301 302 300 298 296 296 296 293 292 292 289 288 287 283 280 277 273 269 265 261 257 253 253 255 245 244 248 246 241 240 240 242 244 246 249 248
306 307 307 306 306 304 301 299 297 296 297 297 293 291 291 290 290 290 286 284 281 278 274 271 272 266 261 256 255 249 254 256 240 244 245 243 239 238 240 242 245 247 246
311 310 309 308 306 305 303 302 299 297 295 295 296 296 294 293 290 289 283 280 275 274 273 268 265 263 260 256 255 242 240 242 239 239 245 245 243 240 239 240 243 247 249
313 312 311 309 308 306 305 302 302 301 298 296 295 297 299 296 291 287 284 278 276 268 263 269 262 260 259 260 259 251 241 240 244 242 244 245 243 243 243 241 244 246 249
315 313 312 311 310 310 309 304 304 306 301 299 298 298 298 296 290 287 283 278 271 264 260 255 263 264 261 264 269 262 265 244 244 242 245 247 249 248 248 246 246 247 251
320 317 315 315 314 313 313 313 309 306 306 308 306 306 305 301 295 287 281 277 276 262 255 259 259 261 264 263 268 270 253 257 256 256 238 242 243 245 247 249 249 247 247
326 324 322 321 318 317 315 315 312 310 310 313 314 313 312 308 302 296 288 276 290 266 275 269 259 264 268 264 253 266 260 250 248 254 250 250 245 246 249 252 247 245 244
334 333 331 329 328 324 322 321 315 309 309 311 313 314 314 313 314 309 302 301 281 276 267 265 264 259 257 256 254 259 261 247 242 246 246 243 245 249 250 249 247 245 248
344 342 340 336 332 327 321 313 308 307 306 306 308 310 312 312 311 313 313 313 303 295 275 274 261 265 267 265 263 263 255 253 249 251 237 249 242 242 247 247 245 243 244
349 345 340 338 337 336 333 324 313 312 303 302 303 304 305 307 307 307 310 310 318 305 303 278 272 259 262 263 266 258 248 253 251 265 262 260 259 253 250 250 247 246 247
Height
5884 5882 5881 5879 5877 5876 5873 5871 5869 5867 5864 5862 5860 5859 5859 5858 5857 5856 5856 5855 5855 5854 5854 5853 5853 5853 5853 5852 5851 5852 5854 5856 5858 5859 5860 5866 5865 5871 5874 5870 5877 5880 5881
5879 5877 5873 5871 5870 5868 5866 5864 5862 5859 5857 5855 5851 5850 5849 5848 5847 5846 5846 5846 5847 5847 5846 5846 5846 5847 5847 5847 5848 5847 5847 5847 5851 5853 5852 5853 5859 5860 5862 5869 5868 5873 5874
5872 5870 5867 5865 5863 5861 5859 5858 5855 5853 5849 5844 5842 5839 5837 5837 5837 5836 5835 5835 5835 5836 5836 5836 5837 5838 5840 5840 5841 5841 5840 5840 5842 5845 5846 5846 5848 5849 5847 5826 5859 5866 5867
5865 5862 5860 5857 5855 5853 5850 5848 5845 5842 5839 5835 5830 5829 5828 5826 5824 5824 5824 5824 5823 5823 5825 5826 5826 5828 5830 5831 5833 5832 5832 5830 5830 5834 5837 5838 5839 5843 5847 5849 5855 5858 5860
5857 5855 5852 5850 5848 5845 5841 5838 5835 5832 5829 5826 5824 5822 5819 5817 5815 5814 5813 5810 5811 5810 5809 5811 5814 5816 5817 5820 5822 5823 5821 5822 5824 5824 5824 5827 5831 5832 5836 5839 5845 5847 5853
5849 5846 5844 5842 5838 5835 5831 5829 5825 5821 5819 5816 5814 5812 5810 5809 5808 5806 5804 5802 5801 5800 5798 5797 5799 5801 5805 5806 5809 5811 5810 5811 5788 5805 5813 5816 5819 5824 5826 5830 5833 5838 5844
5840 5838 5835 5832 5829 5826 5823 5819 5816 5813 5810 5808 5806 5803 5801 5799 5798 5797 5794 5790 5788 5788 5787 5784 5783 5787 5789 5793 5794 5796 5797 5798 5800 5800 5801 5804 5807 5811 5816 5818 5822 5826 5833
5832 5829 5826 5823 5819 5816 5812 5808 5803 5800 5798 5796 5794 5792 5789 5787 5786 5784 5783 5780 5777 5775 5773 5771 5770 5773 5777 5779 5781 5784 5785 5784 5787 5790 5795 5796 5799 5801 5804 5809 5812 5816 5822
5824 5820 5817 5813 5810 5806 5802 5797 5793 5789 5786 5783 5782 5780 5779 5777 5774 5772 5772 5768 5765 5763 5761 5758 5759 5761 5763 5766 5768 5770 5773 5774 5777 5780 5785 5788 5791 5793 5795 5799 5801 5807 5811
5814 5810 5806 5803 5799 5795 5791 5787 5783 5779 5776 5772 5770 5768 5766 5765 5763 5759 5757 5755 5752 5751 5750 5748 5748 5750 5752 5755 5757 5759 5761 5763 5764 5768 5773 5777 5782 5784 5787 5791 5792 5795 5801
5804 5800 5796 5793 5790 5786 5781 5777 5773 5769 5765 5761 5758 5756 5754 5752 5750 5747 5743 5742 5740 5737 5737 5736 5737 5738 5739 5741 5745 5748 5750 5752 5754 5757 5761 5765 5768 5773 5775 5779 5783 5787 5790
5794 5790 5786 5782 5778 5774 5770 5766 5762 5759 5755 5751 5749 5746 5742 5739 5737 5734 5730 5727 5726 5724 5722 5724 5725 5724 5728 5729 5732 5736 5738 5739 5741 5744 5748 5753 5756 5759 5762 5765 5772 5775 5779
5785 5781 5776 5772 5767 5762 5758 5754 5750 5747 5743 5740 5737 5734 5730 5726 5722 5718 5715 5712 5710 5709 5709 5709 5710 5712 5714 5714 5716 5720 5723 5726 5728 5732 5736 5740 5743 5746 5747 5749 5759 5763 5767
5776 5772 5767 5762 5757 5752 5747 5745 5740 5736 5732 5728 5725 5721 5717 5713 5709 5705 5702 5699 5697 5696 5696 5695 5696 5697 5698 5700 5700 5705 5707 5710 5714 5718 5722 5727 5730 5733 5735 5737 5743 5751 5755
5767 5762 5757 5752 5748 5743 5737 5733 5729 5724 5720 5716 5711 5708 5704 5700 5696 5692 5689 5686 5684 5682 5682 5681 5681 5683 5685 5685 5686 5688 5692 5695 5698 5704 5708 5713 5718 5721 5724 5726 5730 5736 5740
5758 5753 5748 5743 5737 5733 5728 5722 5717 5713 5710 5704 5699 5695 5691 5687 5683 5680 5677 5674 5672 5670 5669 5668 5668 5668 5668 5670 5672 5673 5676 5680 5684 5689 5694 5700 5705 5709 5712 5714 5717 5722 5726
5748 5743 5738 5733 5728 5723 5718 5713 5707 5700 5695 5692 5688 5683 5679 5676 5672 5669 5666 5663 5660 5659 5657 5656 5656 5656 5656 5656 5658 5660 5662 5664 5670 5674 5680 5686 5692 5697 5699 5703 5705 5710 5714
5739 5734 5729 5723 5717 5712 5706 5701 5696 5691 5685 5679 5675 5671 5667 5664 5661 5658 5656 5653 5651 5649 5648 5646 5645 5644 5644 5643 5644 5648 5651 5654 5657 5662 5667 5672 5678 5683 5687 5691 5693 5696 5701
5730 5724 5718 5711 5705 5699 5693 5688 5683 5678 5673 5668 5664 5659 5656 5652 5649 5646 5644 5643 5641 5640 5638 5636 5635 5634 5633 5633 5635 5638 5635 5642 5645 5650 5655 5661 5666 5671 5675 5679 5682 5685 5689
5719 5713 5705 5698 5692 5685 5680 5675 5669 5665 5660 5656 5652 5648 5644 5641 5637 5634 5633 5631 5630 5629 5628 5628 5626 5625 5624 5624 5626 5628 5629 5629 5635 5638 5643 5647 5652 5657 5662 5667 5670 5673 5677
5708 5701 5694 5687 5680 5674 5668 5663 5658 5653 5649 5644 5640 5637 5634 5630 5627 5624 5622 5620 5619 5618 5617 5616 5618 5617 5616 5615 5616 5618 5620 5621 5624 5626 5630 5636 5640 5645 5649 5653 5657 5661 5664
5698 5690 5682 5675 5668 5663 5657 5652 5648 5643 5639 5635 5630 5627 5624 5620 5617 5615 5613 5611 5609 5608 5607 5608 5608 5609 5609 5609 5608 5607 5609 5611 5611 5614 5618 5622 5626 5631 5634 5639 5644 5648 5652
5688 5680 5673 5666 5660 5654 5649 5644 5640 5636 5632 5628 5624 5620 5616 5613 5609 5606 5604 5603 5601 5598 5599 5599 5600 5600 5600 5600 5600 5599 5599 5600 5603 5605 5605 5611 5615 5618 5622 5626 5629 5633 5638
5682 5674 5666 5660 5654 5648 5642 5637 5632 5628 5625 5621 5618 5614 5610 5607 5603 5600 5597 5594 5593 5591 5589 5589 5590 5590 5590 5590 5591 5591 5591 5590 5593 5596 5598 5601 5603 5607 5610 5613 5616 5622 5625
5676 5668 5661 5655 5648 5641 5634 5628 5624 5620 5617 5614 5611 5608 5605 5602 5598 5595 5591 5588 5585 5583 5582 5582 5581 5581 5581 5582 5582 5582 5582 5581 5583 5585 5587 5588 5591 5593 5596 5599 5603 5606 5608
5672 5664 5657 5650 5642 5634 5626 5619 5615 5612 5609 5606 5604 5602 5599 5596 5593 5590 5587 5584 5580 5578 5575 5573 5572 5572 5572 5573 5573 5573 5575 5575 5575 5575 5576 5578 5580 5582 5584 5586 5589 5592 5595